Vorticity
7 6 7 10 8 5 10 5 2 6 5 1 2 6 3 2 5 4 6 7 5 5 5 4 2 1 1 1 1 1 1 2 3 5 4 5 4 3 3 1 1 0 2
7 10 9 5 6 12 5 4 16 21 2 3 2 5 3 7 2 4 4 4 8 7 5 6 5 4 3 2 2 2 2 2 2 3 3 3 4 3 2 2 2 1 2
8 7 6 8 8 5 7 3 7 -10 36 -20 7 -1 8 -1 3 6 3 4 4 5 7 6 5 5 4 4 3 3 2 1 2 3 2 3 3 3 2 2 3 3 2
17 17 8 7 5 10 7 6 9 19 -25 -23 -8 24 2 7 2 3 7 3 1 2 3 7 7 5 5 4 5 5 5 4 3 3 2 3 3 4 4 4 2 2 3
10 12 14 13 10 8 7 9 5 3 2 3 27 29 29 13 -7 -2 12 2 9 7 -1 4 6 9 5 6 5 4 4 4 5 4 4 4 3 3 3 3 3 2 3
11 13 9 10 14 10 12 9 14 11 4 1 -2 -65 -23 -21 -11 35 23 23 -5 -8 -2 3 5 7 6 7 7 5 5 4 4 4 4 4 5 4 4 3 3 4 5
16 16 6 15 7 7 9 13 17 8 10 3 4 4 7 11 19 7 26 36 10 -2 -13 2 7 7 4 4 5 5 5 5 5 5 4 2 2 3 3 4 4 4 4
9 18 13 15 14 11 9 10 10 18 11 11 6 5 7 9 11 4 -7 -16 -4 19 36 -8 -2 10 10 5 6 5 5 4 4 4 5 3 3 4 5 6 5 6 6
26 27 18 3 6 23 12 8 8 10 16 15 9 8 3 6 -5 3 7 -15 18 12 17 7 32 -8 0 5 9 5 3 5 6 5 3 5 5 3 4 4 5 5 5
-1 -1 -0 36 34 8 17 15 15 9 11 16 17 13 11 6 6 14 2 8 13 -3 -17 39 30 13 -7 -3 0 10 1 4 6 7 6 4 6 5 5 4 4 4 8
1 2 3 -2 28 38 16 12 13 14 13 12 18 19 15 11 6 3 13 12 16 6 44 -15 9 59 7 13 -14 14 16 6 -6 2 3 3 7 5 4 3 6 6 6
3 -0 4 3 -1 18 19 27 16 12 12 14 12 18 24 21 13 10 9 5 7 -11 -32 7 8 -11 46 32 14 9 21 22 27 3 5 1 4 -4 -1 7 5 1 -1
7 0 6 5 -1 -1 11 3 17 21 10 12 12 13 16 14 18 18 8 13 11 5 1 15 2 15 -4 0 -9 -5 6 22 -17 26 9 -5 3 1 13 6 11 9 18
11 11 8 13 8 5 4 5 4 11 20 11 10 10 16 22 22 8 9 15 12 12 8 8 9 11 11 10 13 16 8 4 10 14 32 40 3 8 13 20 7 25 -4
20 16 15 12 8 14 18 18 5 12 23 14 12 10 10 22 23 13 25 25 9 13 15 8 9 8 8 9 8 12 13 19 14 17 20 17 24 23 9 12 12 11 5
14 18 22 21 26 20 10 17 24 15 20 14 13 12 10 16 22 35 12 20 7 4 15 14 14 13 9 11 10 10 9 2 29 12 16 11 7 6 7 3 4 3 3
14 28 29 13 9 16 14 14 17 26 20 10 11 11 10 16 30 0 26 15 24 27 7 19 20 18 21 17 16 14 14 18 -8 -4 0 -3 -7 -3 -1 5 2 7 4
15 10 14 19 25 13 3 24 32 25 15 20 10 10 12 11 9 -9 4 -10 3 4 11 17 13 15 17 17 21 17 14 12 14 13 12 14 8 6 10 7 6 8 3
20 19 18 18 19 15 27 24 20 17 26 14 11 10 10 11 11 -7 2 18 16 6 -4 2 6 9 9 13 13 17 13 13 12 9 10 11 7 7 6 13 3 11 16
22 13 17 29 56 20 -3 23 18 16 27 12 10 12 13 14 18 10 -17 -25 -5 19 15 15 8 -2 7 6 8 8 7 5 6 7 11 10 1 12 11 13 11 15 13
33 9 15 10 32 14 21 14 10 9 25 10 14 7 3 2 -3 9 12 16 5 8 6 -18 23 16 9 7 8 10 6 -3 28 17 11 16 16 19 13 7 5 15 16
12 25 -6 16 20 15 28 47 4 1 32 9 3 -0 14 12 15 25 16 17 -1 13 17 20 15 8 24 24 21 15 12 -1 -4 9 16 5 5 6 1 10 9 18 19
17 26 25 27 24 48 10 13 14 4 28 8 11 2 -4 13 13 4 7 9 12 10 3 7 14 5 -12 10 7 10 9 5 12 22 6 -2 13 14 11 12 10 4 7
30 21 15 22 10 29 -7 1 -1 6 24 10 8 7 13 -0 2 9 14 13 6 21 15 12 8 2 5 3 12 9 12 17 20 18 12 15 11 8 5 6 9 12 13
-8 -12 5 -21 20 5 1 1 1 17 15 12 7 4 13 9 5 10 2 19 -4 5 13 15 11 14 9 12 17 20 12 6 8 13 6 9 5 7 6 12 14 11 8
-2 34 6 6 22 29 25 20 13 10 10 14 10 9 10 7 9 5 9 8 15 8 8 11 14 19 16 14 12 16 10 10 10 9 5 5 5 13 15 11 8 8 7
Height
5785 5786 5788 5789 5791 5792 5794 5796 5798 5799 5800 5804 5805 5807 5810 5813 5817 5819 5820 5821 5824 5827 5828 5830 5832 5833 5834 5835 5836 5837 5837 5837 5837 5838 5839 5839 5839 5839 5840 5839 5839 5838 5838
5775 5775 5776 5778 5780 5782 5784 5786 5787 5788 5788 5790 5794 5797 5802 5805 5810 5811 5810 5813 5815 5819 5821 5823 5825 5826 5827 5829 5830 5830 5831 5832 5832 5833 5833 5834 5835 5835 5834 5834 5834 5834 5833
5766 5764 5764 5766 5769 5771 5773 5776 5778 5776 5769 5778 5784 5787 5791 5795 5799 5802 5803 5803 5805 5809 5813 5815 5817 5818 5820 5821 5822 5823 5825 5825 5826 5826 5827 5828 5829 5829 5829 5828 5829 5829 5828
5754 5754 5754 5754 5757 5759 5760 5762 5763 5764 5766 5767 5771 5776 5779 5784 5788 5791 5795 5793 5797 5800 5803 5805 5809 5811 5812 5813 5813 5815 5817 5818 5819 5819 5820 5821 5822 5822 5823 5823 5822 5822 5821
5742 5741 5741 5742 5742 5745 5747 5748 5750 5751 5755 5760 5762 5766 5767 5772 5776 5780 5783 5785 5787 5791 5794 5796 5799 5803 5804 5805 5806 5807 5807 5809 5811 5811 5811 5812 5813 5813 5814 5815 5815 5814 5813
5728 5728 5727 5727 5729 5730 5732 5735 5736 5736 5739 5747 5752 5750 5756 5759 5764 5768 5768 5773 5776 5780 5785 5787 5790 5792 5795 5797 5798 5798 5799 5800 5801 5802 5802 5803 5804 5804 5804 5805 5806 5805 5804
5714 5715 5714 5713 5715 5716 5717 5719 5722 5724 5727 5734 5736 5738 5743 5749 5753 5756 5760 5760 5763 5769 5773 5778 5780 5782 5784 5786 5787 5788 5789 5791 5792 5792 5793 5793 5794 5794 5794 5795 5795 5795 5795
5698 5700 5702 5700 5700 5701 5703 5704 5707 5709 5714 5717 5722 5728 5731 5737 5741 5746 5749 5750 5753 5757 5759 5765 5769 5772 5773 5775 5776 5777 5780 5780 5780 5782 5783 5784 5784 5784 5784 5784 5784 5784 5784
5686 5684 5686 5686 5685 5686 5688 5689 5691 5693 5698 5702 5709 5711 5717 5722 5730 5734 5736 5738 5743 5746 5749 5752 5753 5758 5761 5763 5766 5767 5768 5770 5770 5771 5772 5772 5773 5772 5772 5772 5772 5772 5771
5677 5674 5671 5668 5669 5672 5673 5675 5675 5678 5682 5686 5690 5697 5702 5710 5713 5720 5725 5727 5731 5735 5737 5739 5741 5743 5748 5751 5753 5755 5757 5759 5760 5760 5761 5761 5761 5761 5760 5761 5760 5760 5759
5663 5662 5660 5656 5655 5657 5658 5661 5662 5664 5668 5672 5676 5679 5688 5694 5699 5706 5710 5715 5718 5721 5725 5729 5731 5734 5736 5740 5741 5742 5742 5747 5747 5748 5749 5749 5749 5748 5748 5747 5747 5747 5746
5649 5647 5645 5644 5644 5643 5645 5647 5648 5650 5654 5658 5661 5665 5672 5679 5686 5689 5698 5701 5705 5707 5711 5716 5720 5722 5723 5726 5728 5729 5730 5733 5734 5736 5736 5736 5736 5736 5736 5734 5734 5734 5734
5633 5632 5631 5631 5631 5631 5631 5633 5635 5638 5641 5644 5649 5653 5660 5665 5670 5675 5682 5687 5693 5696 5700 5702 5707 5710 5710 5711 5712 5716 5719 5721 5721 5722 5722 5721 5721 5722 5722 5721 5720 5720 5719
5617 5615 5616 5616 5616 5617 5618 5619 5622 5626 5629 5632 5637 5642 5647 5652 5659 5665 5669 5673 5677 5684 5688 5689 5691 5695 5698 5699 5700 5704 5706 5706 5706 5707 5706 5705 5707 5707 5707 5707 5707 5707 5706
5601 5600 5599 5600 5601 5602 5603 5605 5608 5612 5617 5620 5625 5631 5636 5641 5647 5652 5656 5660 5663 5671 5674 5676 5680 5681 5683 5686 5688 5690 5692 5693 5694 5694 5696 5695 5694 5694 5693 5694 5694 5693 5693
5584 5583 5583 5583 5584 5586 5588 5591 5594 5598 5603 5609 5614 5620 5626 5631 5636 5639 5645 5649 5654 5658 5662 5664 5666 5669 5671 5673 5676 5677 5679 5680 5681 5680 5681 5680 5680 5680 5680 5681 5680 5679 5678
5570 5569 5568 5568 5570 5572 5575 5578 5581 5585 5591 5598 5605 5613 5618 5623 5627 5632 5637 5640 5644 5647 5650 5651 5653 5656 5659 5661 5662 5663 5665 5666 5666 5666 5666 5666 5667 5667 5666 5666 5665 5664 5664
5557 5557 5556 5556 5557 5561 5564 5566 5569 5575 5583 5588 5597 5606 5612 5616 5619 5625 5629 5633 5635 5639 5640 5642 5643 5644 5646 5647 5650 5650 5651 5651 5652 5652 5652 5652 5652 5651 5651 5651 5652 5651 5646
5547 5546 5546 5546 5547 5550 5554 5558 5563 5569 5576 5581 5590 5597 5604 5607 5613 5617 5621 5624 5625 5628 5631 5633 5634 5636 5636 5637 5638 5638 5638 5638 5638 5638 5638 5638 5638 5639 5639 5638 5638 5636 5633
5539 5538 5538 5538 5535 5541 5548 5553 5559 5565 5572 5577 5584 5591 5597 5603 5607 5611 5614 5615 5619 5621 5622 5624 5625 5626 5627 5627 5627 5628 5628 5628 5628 5627 5628 5628 5627 5626 5625 5624 5624 5620 5618
5534 5533 5533 5533 5533 5540 5546 5553 5558 5563 5569 5574 5581 5586 5592 5597 5601 5603 5607 5609 5611 5612 5615 5616 5617 5617 5617 5617 5617 5617 5617 5617 5617 5616 5616 5614 5614 5613 5611 5610 5608 5606 5605
5531 5530 5530 5531 5535 5538 5543 5545 5555 5561 5566 5571 5576 5582 5586 5590 5594 5597 5600 5602 5604 5605 5605 5606 5608 5608 5608 5608 5606 5605 5606 5606 5605 5604 5603 5602 5600 5600 5597 5596 5594 5591 5589
5529 5528 5529 5531 5533 5534 5540 5549 5555 5561 5564 5568 5573 5576 5580 5584 5588 5591 5594 5595 5596 5597 5598 5598 5599 5599 5599 5598 5596 5594 5592 5592 5593 5592 5591 5590 5588 5586 5584 5582 5579 5577 5575
5531 5530 5530 5532 5534 5540 5543 5552 5555 5558 5562 5566 5570 5574 5577 5580 5583 5586 5587 5588 5588 5588 5589 5589 5589 5590 5589 5588 5586 5584 5583 5581 5581 5581 5580 5578 5575 5572 5570 5568 5565 5562 5559
5535 5534 5534 5535 5537 5541 5546 5550 5554 5557 5560 5564 5568 5571 5574 5576 5578 5580 5581 5581 5581 5581 5581 5581 5581 5579 5577 5576 5575 5575 5574 5573 5572 5570 5568 5567 5564 5561 5558 5554 5549 5546 5543
5537 5536 5536 5538 5540 5542 5546 5549 5553 5556 5559 5562 5566 5568 5569 5571 5572 5574 5574 5574 5573 5573 5572 5571 5569 5567 5566 5565 5565 5564 5563 5561 5560 5559 5557 5555 5552 5549 5547 5540 5534 5529 5525